McAllen, TX

4:38 PM CST on January 22, 2017 (GMT -0600)
McAllen Miller International

Weather History for KMFE - July, 2013

Change the Weather History Date:

Friday, July 19, 2013

  Actual Average Record
Temperature  
Mean Temperature 85 °F 87 °F  
Max Temperature 94 °F 97 °F 106 °F (2009)
Min Temperature 76 °F 76 °F 71 °F (1971)
Degree Days  
Heating Degree Days 0 0  
Month to date heating degree days 0 0  
Since 1 June heating degree days 0 0  
Since 1 July heating degree days 0 0  
Cooling Degree Days 20 22  
Month to date cooling degree days 396 408  
Year to date cooling degree days 2369 2291  
Since 1 June cooling degree days 1073 1036  
Growing Degree Days 34 (Base 50)    
Moisture  
Dew Point 73 °F    
Average Humidity 70    
Maximum Humidity 94    
Minimum Humidity 46    
Precipitation  
Precipitation T in 0.06 in 0.38 in (1964)
Month to date precipitation 1.16 1.39  
Year to date precipitation 5.46 10.75  
Sea Level Pressure  
Sea Level Pressure 29.96 in    
Wind  
Wind Speed 8 mph (East)    
Max Wind Speed 22 mph    
Max Gust Speed 26 mph    
Visibility 10 miles    
Events      
T = Trace of Precipitation, MM = Missing Value Source: NWS Daily Summary

Daily Weather History Graph

Daily Weather History Graph

Search for Another Location

Airport or City:

Trip Planner

Search our weather history database for the weather conditions in past years. The results will help you decide how hot, cold, wet, or windy it might be!

Date:

Astronomy

Jul. 19, 2013 Rise Set
Actual Time 6:52 AM CDT 8:26 PM CDT
Civil Twilight 6:26 AM CDT 8:51 PM CDT
Nautical Twilight 5:56 AM CDT 9:21 PM CDT
Astronomical Twilight 5:24 AM CDT 9:53 PM CDT
Moon 5:30 PM CDT (7/19) 3:33 AM CDT (7/19)
Length of Visible Light 14h 24m
Length of Day
13h 33m
Waxing Gibbous, 87% of the Moon is Illuminated
Jul 19
Waxing Gibbous
Jul 22
Full
Jul 29
Last Quarter
Aug 6
New
Aug 14
First Quarter

Hourly Weather History & Observations

Time (CDT) Temp. Heat Index Dew Point Humidity Pressure Visibility Wind Dir Wind Speed Gust Speed Precip Events Conditions
12:53 AM 77.0 °F - 73.9 °F 90% 30.04 in 10.0 mi SE 4.6 mph - N/A   Clear
1:53 AM 75.9 °F - 73.9 °F 94% 30.01 in 10.0 mi SE 3.5 mph - N/A   Clear
2:53 AM 77.0 °F - 73.9 °F 90% 29.99 in 10.0 mi East 4.6 mph - N/A   Clear
3:53 AM 77.0 °F - 73.9 °F 90% 29.99 in 10.0 mi East 4.6 mph - N/A   Partly Cloudy
4:53 AM 77.0 °F - 73.9 °F 90% 29.97 in 10.0 mi ENE 3.5 mph - N/A   Clear
5:53 AM 77.0 °F - 73.9 °F 90% 29.98 in 10.0 mi NE 6.9 mph - N/A   Clear
6:53 AM 77.0 °F - 75.0 °F 94% 29.99 in 10.0 mi ENE 5.8 mph - N/A   Scattered Clouds
7:37 AM 78.8 °F - 75.2 °F 89% 30.00 in 10.0 mi ENE 4.6 mph - N/A   Mostly Cloudy
7:53 AM 78.1 °F - 75.0 °F 90% 30.00 in 10.0 mi ENE 4.6 mph - N/A   Scattered Clouds
8:53 AM 81.0 °F 86.7 °F 75.0 °F 82% 30.01 in 10.0 mi East 5.8 mph - N/A   Clear
9:53 AM 84.0 °F 91.9 °F 75.0 °F 74% 30.01 in 10.0 mi SE 6.9 mph - N/A   Scattered Clouds
10:53 AM 84.9 °F 92.1 °F 73.9 °F 69% 30.00 in 10.0 mi Variable 3.5 mph - N/A   Partly Cloudy
11:53 AM 89.1 °F 97.0 °F 73.0 °F 59% 29.99 in 10.0 mi ESE 4.6 mph - N/A   Clear
12:53 PM 90.0 °F 96.9 °F 72.0 °F 55% 29.98 in 10.0 mi ESE 5.8 mph - N/A   Partly Cloudy
1:53 PM 91.0 °F 97.6 °F 71.1 °F 52% 29.95 in 10.0 mi East 10.4 mph - N/A   Scattered Clouds
2:53 PM 93.0 °F 97.9 °F 69.1 °F 45% 29.93 in 10.0 mi East 6.9 mph - N/A   Overcast
3:53 PM 90.0 °F 96.4 °F 71.1 °F 54% 29.91 in 10.0 mi East 12.7 mph - 0.00 in   Mostly Cloudy
4:53 PM 91.0 °F 96.6 °F 70.0 °F 50% 29.89 in 10.0 mi ESE 13.8 mph - N/A   Mostly Cloudy
5:53 PM 91.9 °F 96.9 °F 69.1 °F 47% 29.87 in 10.0 mi ESE 16.1 mph 24.2 mph N/A   Scattered Clouds
6:53 PM 90.0 °F 94.5 °F 69.1 °F 50% 29.88 in 10.0 mi ESE 18.4 mph 26.5 mph N/A   Clear
7:53 PM 86.0 °F 91.5 °F 71.1 °F 61% 29.90 in 10.0 mi ESE 15.0 mph - N/A   Scattered Clouds
8:53 PM 84.9 °F 90.7 °F 72.0 °F 65% 29.92 in 10.0 mi East 15.0 mph - N/A   Partly Cloudy
9:53 PM 82.9 °F 88.0 °F 72.0 °F 69% 29.95 in 10.0 mi East 10.4 mph - N/A   Clear
10:53 PM 81.0 °F 85.8 °F 73.0 °F 77% 29.96 in 10.0 mi ESE 5.8 mph - N/A   Clear
11:53 PM 79.0 °F - 73.9 °F 84% 29.97 in 10.0 mi SSE 3.5 mph - N/A   Clear